| time (UTC) | temp C | wind direction | speed KPH | gust KPH | rain 1hr cm | rain 24hr cm | rain mn cm | humidity % | barometer mb |
| 20260506025537 | 18 | 13 | 14.5 | 27.4 | 0.00 | 0.00 | 0.00 | 79 | 1009.1 |
| 20260506025039 | 18 | 41 | 16.1 | 27.4 | 0.00 | 0.00 | 0.00 | 78 | 1008.7 |
| 20260506024608 | 19 | 26 | 14.5 | 25.7 | 0.00 | 0.00 | 0.00 | 78 | 1008.7 |
| 20260506024037 | 19 | 351 | 16.1 | 27.4 | 0.00 | 0.00 | 0.00 | 78 | 1008.6 |
| 20260506023538 | 20 | 5 | 16.1 | 27.4 | 0.00 | 0.00 | 0.00 | 79 | 1008.4 |
| 20260506023046 | 20 | 13 | 16.1 | 24.1 | 0.00 | 0.00 | 0.00 | 78 | 1008.1 |
| 20260506022540 | 20 | 351 | 12.9 | 24.1 | 0.00 | 0.00 | 0.00 | 78 | 1007.9 |
| 20260506022038 | 20 | 10 | 12.9 | 22.5 | 0.00 | 0.00 | 0.00 | 78 | 1007.6 |
| 20260506021555 | 20 | 29 | 12.9 | 24.1 | 0.00 | 0.00 | 0.00 | 78 | 1007.7 |
| 20260506021040 | 20 | 360 | 9.7 | 25.7 | 0.00 | 0.00 | 0.00 | 78 | 1007.5 |
| 20260506020537 | 20 | 5 | 16.1 | 29.0 | 0.00 | 0.00 | 0.00 | 77 | 1007.4 |
| 20260506020049 | 20 | 9 | 16.1 | 29.0 | 0.00 | 0.00 | 0.00 | 76 | 1007.2 |
| 20260506015541 | 21 | 360 | 12.9 | 20.9 | 0.00 | 0.00 | 0.00 | 76 | 1007.2 |
| 20260506015038 | 21 | 28 | 12.9 | 20.9 | 0.00 | 0.00 | 0.00 | 77 | 1007.1 |
| 20260506014549 | 21 | 350 | 12.9 | 19.3 | 0.00 | 0.00 | 0.00 | 77 | 1007.1 |
| 20260506014037 | 21 | 360 | 12.9 | 19.3 | 0.00 | 0.00 | 0.00 | 76 | 1007.0 |
| 20260506013537 | 21 | 351 | 12.9 | 19.3 | 0.00 | 0.00 | 0.00 | 77 | 1006.8 |
| 20260506013049 | 21 | 9 | 12.9 | 19.3 | 0.00 | 0.00 | 0.00 | 76 | 1006.7 |
| 20260506012537 | 21 | 339 | 11.3 | 22.5 | 0.00 | 0.00 | 0.00 | 75 | 1006.7 |
| 20260506012038 | 21 | 351 | 14.5 | 22.5 | 0.00 | 0.00 | 0.00 | 75 | 1006.7 |
| 20260506011609 | 21 | 9 | 12.9 | 17.7 | 0.00 | 0.00 | 0.00 | 75 | 1006.6 |
| 20260506011038 | 21 | 19 | 11.3 | 19.3 | 0.00 | 0.00 | 0.00 | 74 | 1006.7 |
| 20260506010538 | 21 | 17 | 9.7 | 24.1 | 0.00 | 0.00 | 0.00 | 73 | 1006.6 |
| 20260506010051 | 22 | 333 | 12.9 | 24.1 | 0.00 | 0.00 | 0.00 | 74 | 1006.5 |
| 20260506005538 | 22 | 352 | 16.1 | 22.5 | 0.00 | 0.00 | 0.00 | 74 | 1006.7 |
| 20260506005040 | 22 | 336 | 9.7 | 20.9 | 0.00 | 0.00 | 0.00 | 73 | 1006.7 |
| 20260506004550 | 22 | 352 | 11.3 | 20.9 | 0.00 | 0.00 | 0.00 | 73 | 1005.7 |
| 20260506004041 | 22 | 346 | 12.9 | 20.9 | 0.00 | 0.00 | 0.00 | 73 | 1005.9 |
| 20260506003538 | 22 | 13 | 12.9 | 22.5 | 0.00 | 0.00 | 0.00 | 73 | 1006.1 |
| 20260506003049 | 22 | 15 | 14.5 | 24.1 | 0.00 | 0.00 | 0.00 | 72 | 1005.9 |
| 20260506002537 | 22 | 328 | 12.9 | 24.1 | 0.00 | 0.00 | 0.00 | 73 | 1005.8 |
| 20260506002037 | 22 | 360 | 16.1 | 27.4 | 0.00 | 0.00 | 0.00 | 73 | 1005.4 |
| 20260506001549 | 22 | 5 | 14.5 | 30.6 | 0.00 | 0.00 | 0.00 | 73 | 1005.6 |
| 20260506001038 | 22 | 350 | 19.3 | 32.2 | 0.00 | 0.00 | 0.00 | 73 | 1005.5 |
| 20260506000538 | 23 | 352 | 20.9 | 32.2 | 0.00 | 0.00 | 0.00 | 72 | 1005.4 |
| 20260506000054 | 23 | 15 | 17.7 | 32.2 | 0.00 | 0.00 | 0.00 | 72 | 1005.4 |
| 20260505235540 | 23 | 29 | 22.5 | 32.2 | 0.00 | 0.00 | 0.00 | 71 | 1005.4 |
| 20260505235037 | 23 | 352 | 22.5 | 33.8 | 0.00 | 0.00 | 0.00 | 71 | 1005.3 |
| 20260505234546 | 23 | 360 | 22.5 | 33.8 | 0.00 | 0.00 | 0.00 | 70 | 1005.3 |
| 20260505234044 | 24 | 340 | 20.9 | 30.6 | 0.00 | 0.00 | 0.00 | 69 | 1005.3 |
| 20260505233540 | 25 | 352 | 24.1 | 37.0 | 0.00 | 0.00 | 0.00 | 68 | 1005.2 |
| 20260505233045 | 25 | 13 | 16.1 | 37.0 | 0.00 | 0.00 | 0.00 | 68 | 1005.1 |
| 20260505232540 | 25 | 327 | 25.7 | 37.0 | 0.00 | 0.00 | 0.00 | 67 | 1005.1 |
| 20260505232039 | 25 | 331 | 20.9 | 32.2 | 0.00 | 0.00 | 0.00 | 67 | 1005.0 |
| 20260505231552 | 25 | 352 | 22.5 | 32.2 | 0.00 | 0.00 | 0.00 | 67 | 1005.0 |
| 20260505231037 | 26 | 342 | 20.9 | 32.2 | 0.00 | 0.00 | 0.00 | 67 | 1004.9 |
| 20260505230536 | 26 | 344 | 22.5 | 32.2 | 0.00 | 0.00 | 0.00 | 66 | 1004.9 |
| 20260505230048 | 26 | 5 | 20.9 | 32.2 | 0.00 | 0.00 | 0.00 | 66 | 1004.7 |
| 20260505225538 | 27 | 352 | 22.5 | 32.2 | 0.00 | 0.00 | 0.00 | 65 | 1004.5 |
| 20260505225038 | 27 | 339 | 17.7 | 24.1 | 0.00 | 0.00 | 0.00 | 63 | 1004.3 |
| 20260505224547 | 27 | 343 | 16.1 | 24.1 | 0.00 | 0.00 | 0.00 | 63 | 1004.1 |
| 20260505224039 | 27 | 342 | 17.7 | 24.1 | 0.00 | 0.00 | 0.00 | 61 | 1004.4 |
| 20260505223545 | 28 | 342 | 16.1 | 25.7 | 0.00 | 0.00 | 0.00 | 59 | 1004.3 |
| 20260505223049 | 28 | 331 | 17.7 | 25.7 | 0.00 | 0.00 | 0.00 | 57 | 1004.2 |
| 20260505222541 | 28 | 350 | 17.7 | 25.7 | 0.00 | 0.00 | 0.00 | 55 | 1003.9 |
| 20260505222040 | 28 | 329 | 14.5 | 22.5 | 0.00 | 0.00 | 0.00 | 56 | 1003.8 |
| 20260505221600 | 28 | 351 | 14.5 | 20.9 | 0.00 | 0.00 | 0.00 | 56 | 1003.8 |
| 20260505221040 | 28 | 337 | 16.1 | 20.9 | 0.00 | 0.00 | 0.00 | 56 | 1003.8 |
| 20260505220540 | 28 | 329 | 14.5 | 25.7 | 0.00 | 0.00 | 0.00 | 55 | 1003.7 |
| 20260505220057 | 28 | 327 | 14.5 | 27.4 | 0.00 | 0.00 | 0.00 | 56 | 1003.5 |
| 20260505215541 | 28 | 335 | 17.7 | 27.4 | 0.00 | 0.00 | 0.00 | 56 | 1003.6 |
| 20260505215037 | 28 | 342 | 16.1 | 25.7 | 0.00 | 0.00 | 0.00 | 57 | 1003.7 |
| 20260505214553 | 28 | 288 | 8.0 | 14.5 | 0.00 | 0.00 | 0.00 | 64 | 1003.8 |
| 20260505214038 | 29 | 277 | 9.7 | 14.5 | 0.00 | 0.00 | 0.00 | 62 | 1003.8 |
| 20260505213539 | 28 | 295 | 6.4 | 12.9 | 0.00 | 0.00 | 0.00 | 65 | 1003.8 |
| 20260505213049 | 28 | 271 | 6.4 | 14.5 | 0.00 | 0.00 | 0.00 | 66 | 1003.7 |
| 20260505212538 | 28 | 279 | 9.7 | 14.5 | 0.00 | 0.00 | 0.00 | 65 | 1003.7 |
| 20260505212038 | 28 | 276 | 8.0 | 14.5 | 0.00 | 0.00 | 0.00 | 65 | 1003.9 |
| 20260505211551 | 29 | 239 | 4.8 | 9.7 | 0.00 | 0.00 | 0.00 | 65 | 1003.9 |
| 20260505211037 | 30 | 267 | 1.6 | 4.8 | 0.00 | 0.00 | 0.00 | 62 | 1004.0 |
| 20260505210541 | 29 | 274 | 0.0 | 4.8 | 0.00 | 0.00 | 0.00 | 65 | 1004.1 |
| 20260505210053 | 28 | 245 | 1.6 | 6.4 | 0.00 | 0.00 | 0.00 | 68 | 1004.2 |
| 20260505205541 | 28 | 254 | 3.2 | 6.4 | 0.00 | 0.00 | 0.00 | 70 | 1004.3 |
| 20260505205042 | 27 | 0 | 0.0 | 6.4 | 0.00 | 0.00 | 0.00 | 71 | 1004.3 |
| 20260505204558 | 27 | 235 | 3.2 | 9.7 | 0.00 | 0.00 | 0.00 | 73 | 1004.3 |
| 20260505204044 | 27 | 215 | 4.8 | 9.7 | 0.00 | 0.00 | 0.00 | 74 | 1004.4 |
| 20260505203537 | 26 | 222 | 6.4 | 12.9 | 0.00 | 0.00 | 0.00 | 73 | 1004.4 |
| 20260505203051 | 27 | 211 | 6.4 | 17.7 | 0.00 | 0.00 | 0.00 | 74 | 1004.4 |
| 20260505202541 | 27 | 233 | 9.7 | 19.3 | 0.00 | 0.00 | 0.00 | 72 | 1004.5 |
| 20260505202041 | 27 | 238 | 14.5 | 20.9 | 0.00 | 0.00 | 0.00 | 71 | 1004.6 |
| 20260505201551 | 27 | 242 | 12.9 | 24.1 | 0.00 | 0.00 | 0.00 | 71 | 1004.7 |
| 20260505201041 | 27 | 247 | 17.7 | 24.1 | 0.00 | 0.00 | 0.00 | 70 | 1004.6 |
| 20260505200538 | 26 | 242 | 16.1 | 20.9 | 0.00 | 0.00 | 0.00 | 72 | 1004.6 |
| 20260505200049 | 26 | 252 | 14.5 | 20.9 | 0.00 | 0.00 | 0.00 | 74 | 1004.7 |
| 20260505195540 | 26 | 232 | 16.1 | 20.9 | 0.00 | 0.00 | 0.00 | 72 | 1004.7 |
| 20260505195040 | 26 | 216 | 14.5 | 17.7 | 0.00 | 0.00 | 0.00 | 75 | 1004.8 |
| 20260505194557 | 26 | 221 | 9.7 | 17.7 | 0.00 | 0.00 | 0.00 | 76 | 1004.8 |
| 20260505194040 | 26 | 217 | 12.9 | 19.3 | 0.00 | 0.00 | 0.00 | 75 | 1004.8 |
| 20260505193539 | 26 | 217 | 14.5 | 19.3 | 0.00 | 0.00 | 0.00 | 74 | 1004.8 |
| 20260505193051 | 26 | 225 | 12.9 | 20.9 | 0.00 | 0.00 | 0.00 | 76 | 1005.0 |
| 20260505192540 | 26 | 217 | 12.9 | 20.9 | 0.00 | 0.00 | 0.00 | 76 | 1004.8 |
| 20260505192039 | 25 | 209 | 14.5 | 19.3 | 0.00 | 0.00 | 0.00 | 76 | 1004.7 |
| 20260505191550 | 25 | 205 | 14.5 | 19.3 | 0.00 | 0.00 | 0.00 | 76 | 1004.7 |
| 20260505191038 | 25 | 203 | 14.5 | 19.3 | 0.00 | 0.00 | 0.00 | 76 | 1004.8 |
| 20260505190539 | 25 | 216 | 14.5 | 25.7 | 0.00 | 0.00 | 0.00 | 77 | 1004.8 |
| 20260505190048 | 25 | 209 | 14.5 | 25.7 | 0.00 | 0.00 | 0.00 | 77 | 1004.7 |
| 20260505185538 | 25 | 215 | 19.3 | 24.1 | 0.00 | 0.00 | 0.00 | 76 | 1004.7 |
| 20260505185043 | 25 | 202 | 16.1 | 24.1 | 0.00 | 0.00 | 0.00 | 76 | 1004.8 |
| 20260505184553 | 25 | 203 | 17.7 | 24.1 | 0.00 | 0.00 | 0.00 | 76 | 1004.8 |
| 20260505184041 | 25 | 211 | 17.7 | 25.7 | 0.00 | 0.00 | 0.00 | 76 | 1004.8 |
| 20260505183543 | 25 | 195 | 19.3 | 25.7 | 0.00 | 0.00 | 0.00 | 76 | 1005.0 |
| 20260505183053 | 25 | 208 | 16.1 | 22.5 | 0.00 | 0.00 | 0.00 | 76 | 1005.0 |
| 20260505182540 | 25 | 231 | 16.1 | 20.9 | 0.00 | 0.00 | 0.00 | 75 | 1004.8 |
| 20260505182037 | 25 | 211 | 16.1 | 20.9 | 0.00 | 0.00 | 0.00 | 76 | 1004.9 |
| 20260505181545 | 25 | 215 | 12.9 | 30.6 | 0.00 | 0.00 | 0.00 | 77 | 1004.9 |
| 20260505181037 | 26 | 215 | 19.3 | 30.6 | 0.00 | 0.00 | 0.00 | 74 | 1004.9 |
| 20260505180536 | 25 | 218 | 19.3 | 27.4 | 0.00 | 0.00 | 0.00 | 76 | 1005.1 |
| 20260505180045 | 25 | 215 | 17.7 | 24.1 | 0.00 | 0.00 | 0.00 | 77 | 1005.1 |
| 20260505175535 | 25 | 196 | 16.1 | 22.5 | 0.00 | 0.00 | 0.00 | 78 | 1005.0 |
| 20260505175038 | 25 | 205 | 14.5 | 22.5 | 0.00 | 0.00 | 0.00 | 79 | 1004.9 |
| 20260505174549 | 25 | 197 | 14.5 | 25.7 | 0.00 | 0.00 | 0.00 | 78 | 1004.9 |
| 20260505174038 | 25 | 203 | 14.5 | 25.7 | 0.00 | 0.00 | 0.00 | 78 | 1004.8 |
| 20260505173536 | 25 | 190 | 19.3 | 25.7 | 0.00 | 0.00 | 0.00 | 77 | 1004.9 |
| 20260505173049 | 25 | 200 | 17.7 | 24.1 | 0.00 | 0.00 | 0.00 | 78 | 1005.0 |
| 20260505172534 | 25 | 205 | 17.7 | 25.7 | 0.00 | 0.00 | 0.00 | 78 | 1005.0 |
| 20260505172037 | 25 | 204 | 19.3 | 29.0 | 0.00 | 0.00 | 0.00 | 78 | 1005.0 |
| 20260505171547 | 25 | 197 | 17.7 | 29.0 | 0.00 | 0.00 | 0.00 | 78 | 1005.0 |
| 20260505171039 | 25 | 205 | 22.5 | 27.4 | 0.00 | 0.00 | 0.00 | 78 | 1005.0 |
| 20260505170538 | 24 | 200 | 16.1 | 30.6 | 0.00 | 0.00 | 0.00 | 80 | 1005.0 |
| 20260505170050 | 25 | 205 | 17.7 | 30.6 | 0.00 | 0.00 | 0.00 | 79 | 1005.2 |
| 20260505165538 | 24 | 195 | 19.3 | 29.0 | 0.00 | 0.00 | 0.00 | 79 | 1005.1 |
| 20260505165037 | 24 | 201 | 19.3 | 27.4 | 0.00 | 0.00 | 0.00 | 79 | 1005.2 |
| 20260505164557 | 24 | 196 | 19.3 | 27.4 | 0.00 | 0.00 | 0.00 | 80 | 1005.2 |
| 20260505164037 | 24 | 205 | 17.7 | 29.0 | 0.00 | 0.00 | 0.00 | 80 | 1005.2 |
| 20260505163538 | 24 | 197 | 19.3 | 30.6 | 0.00 | 0.00 | 0.00 | 80 | 1005.0 |
| 20260505163050 | 24 | 196 | 22.5 | 35.4 | 0.00 | 0.00 | 0.00 | 80 | 1005.1 |
| 20260505162535 | 24 | 200 | 20.9 | 35.4 | 0.00 | 0.00 | 0.00 | 80 | 1005.1 |
| 20260505162038 | 23 | 198 | 25.7 | 35.4 | 0.00 | 0.00 | 0.00 | 81 | 1004.9 |
| 20260505161556 | 23 | 192 | 20.9 | 37.0 | 0.00 | 0.00 | 0.00 | 81 | 1004.8 |
| 20260505161042 | 23 | 200 | 27.4 | 37.0 | 0.00 | 0.00 | 0.00 | 81 | 1004.8 |
| 20260505160539 | 23 | 196 | 22.5 | 33.8 | 0.00 | 0.00 | 0.00 | 81 | 1004.8 |
| 20260505153108 | 23 | 195 | 22.5 | 37.0 | 0.00 | 0.00 | 0.00 | 83 | 1004.7 |
| 20260505152543 | 23 | 199 | 24.1 | 37.0 | 0.00 | 0.00 | 0.00 | 82 | 1004.7 |
| 20260505152038 | 23 | 192 | 27.4 | 40.2 | 0.00 | 0.00 | 0.00 | 82 | 1004.6 |
| 20260505151549 | 23 | 196 | 25.7 | 40.2 | 0.00 | 0.00 | 0.00 | 83 | 1004.6 |
| 20260505151039 | 23 | 190 | 25.7 | 33.8 | 0.00 | 0.00 | 0.00 | 83 | 1004.8 |
| 20260505150538 | 23 | 207 | 24.1 | 35.4 | 0.00 | 0.00 | 0.00 | 83 | 1005.0 |
| 20260505140540 | 22 | 190 | 24.1 | 37.0 | 0.00 | 0.00 | 0.00 | 85 | 1004.8 |
| 20260505125038 | 21 | 183 | 20.9 | 30.6 | 0.00 | 0.00 | 0.00 | 87 | 1004.4 |
| 20260505124549 | 21 | 180 | 19.3 | 30.6 | 0.00 | 0.00 | 0.00 | 87 | 1004.2 |
| 20260505124037 | 21 | 169 | 19.3 | 30.6 | 0.00 | 0.00 | 0.00 | 87 | 1004.2 |
| 20260505123542 | 21 | 190 | 16.1 | 29.0 | 0.00 | 0.00 | 0.00 | 87 | 1004.2 |
| 20260505123052 | 21 | 180 | 17.7 | 30.6 | 0.00 | 0.00 | 0.00 | 87 | 1004.2 |
| 20260505122536 | 21 | 163 | 19.3 | 30.6 | 0.00 | 0.00 | 0.00 | 87 | 1004.1 |
| 20260505122039 | 21 | 193 | 19.3 | 30.6 | 0.00 | 0.00 | 0.00 | 87 | 1003.8 |
| 20260505121545 | 21 | 183 | 17.7 | 35.4 | 0.00 | 0.00 | 0.00 | 87 | 1003.9 |
| 20260505121039 | 21 | 190 | 24.1 | 35.4 | 0.00 | 0.00 | 0.00 | 87 | 1003.9 |
| 20260505120537 | 21 | 177 | 22.5 | 33.8 | 0.00 | 0.00 | 0.00 | 87 | 1003.8 |
| 20260505120100 | 21 | 192 | 20.9 | 35.4 | 0.00 | 0.00 | 0.00 | 86 | 1003.8 |
| 20260505115538 | 21 | 182 | 20.9 | 40.2 | 0.00 | 0.00 | 0.00 | 86 | 1003.8 |
| 20260505115041 | 21 | 198 | 25.7 | 40.2 | 0.00 | 0.00 | 0.00 | 86 | 1003.7 |
| 20260505114551 | 21 | 195 | 22.5 | 33.8 | 0.00 | 0.00 | 0.00 | 86 | 1003.7 |
| 20260505114041 | 21 | 198 | 24.1 | 41.8 | 0.00 | 0.00 | 0.00 | 86 | 1003.7 |
| 20260505113539 | 21 | 180 | 24.1 | 41.8 | 0.00 | 0.00 | 0.00 | 86 | 1003.7 |
| 20260505113103 | 21 | 173 | 24.1 | 35.4 | 0.00 | 0.00 | 0.00 | 86 | 1003.6 |
| 20260505112539 | 21 | 168 | 24.1 | 43.5 | 0.00 | 0.00 | 0.00 | 85 | 1003.5 |
| 20260505112037 | 22 | 200 | 25.7 | 43.5 | 0.00 | 0.00 | 0.00 | 85 | 1003.5 |
| 20260505111550 | 22 | 194 | 25.7 | 40.2 | 0.00 | 0.00 | 0.00 | 85 | 1003.4 |
| 20260505111041 | 22 | 185 | 24.1 | 35.4 | 0.00 | 0.00 | 0.00 | 85 | 1003.4 |
| 20260505110536 | 22 | 193 | 24.1 | 35.4 | 0.00 | 0.00 | 0.00 | 86 | 1003.5 |
| 20260505102038 | 21 | 204 | 22.5 | 37.0 | 0.00 | 0.00 | 0.00 | 86 | 1003.7 |
| 20260505101550 | 21 | 194 | 22.5 | 37.0 | 0.00 | 0.00 | 0.00 | 86 | 1003.7 |
| 20260505101041 | 21 | 191 | 20.9 | 37.0 | 0.00 | 0.00 | 0.00 | 86 | 1003.6 |
| 20260505100541 | 21 | 180 | 22.5 | 37.0 | 0.00 | 0.00 | 0.00 | 86 | 1003.7 |
| 20260505100045 | 21 | 191 | 22.5 | 38.6 | 0.00 | 0.00 | 0.00 | 86 | 1003.7 |
| 20260505095537 | 21 | 182 | 25.7 | 43.5 | 0.00 | 0.00 | 0.00 | 85 | 1003.6 |
| 20260505095040 | 21 | 165 | 27.4 | 43.5 | 0.00 | 0.00 | 0.00 | 85 | 1003.7 |
| 20260505094549 | 21 | 183 | 25.7 | 37.0 | 0.00 | 0.00 | 0.00 | 86 | 1003.7 |
| 20260505094039 | 21 | 177 | 29.0 | 37.0 | 0.00 | 0.00 | 0.00 | 85 | 1003.6 |
| 20260505093537 | 21 | 192 | 25.7 | 38.6 | 0.00 | 0.00 | 0.00 | 85 | 1003.7 |
| 20260505093054 | 22 | 202 | 25.7 | 38.6 | 0.00 | 0.00 | 0.00 | 85 | 1003.8 |
| 20260505092539 | 22 | 184 | 24.1 | 40.2 | 0.00 | 0.00 | 0.00 | 85 | 1003.9 |
| 20260505092039 | 22 | 180 | 27.4 | 45.1 | 0.00 | 0.00 | 0.00 | 85 | 1003.9 |
| 20260505091545 | 22 | 184 | 27.4 | 45.1 | 0.00 | 0.00 | 0.00 | 85 | 1004.0 |
| 20260505091038 | 22 | 188 | 29.0 | 41.8 | 0.00 | 0.00 | 0.00 | 85 | 1003.9 |
| 20260505090538 | 22 | 187 | 27.4 | 40.2 | 0.00 | 0.00 | 0.00 | 85 | 1004.1 |
| 20260505090048 | 22 | 190 | 29.0 | 40.2 | 0.00 | 0.00 | 0.00 | 85 | 1004.1 |
| 20260505085539 | 22 | 174 | 25.7 | 41.8 | 0.00 | 0.00 | 0.00 | 85 | 1004.0 |
| 20260505085039 | 22 | 182 | 25.7 | 41.8 | 0.00 | 0.00 | 0.00 | 84 | 1004.2 |
| 20260505084552 | 22 | 189 | 27.4 | 38.6 | 0.00 | 0.00 | 0.00 | 84 | 1004.2 |
| 20260505084038 | 22 | 170 | 27.4 | 38.6 | 0.00 | 0.00 | 0.00 | 84 | 1004.1 |
| 20260505083538 | 22 | 173 | 27.4 | 40.2 | 0.00 | 0.00 | 0.00 | 84 | 1004.1 |
| 20260505083051 | 22 | 193 | 24.1 | 40.2 | 0.00 | 0.00 | 0.00 | 84 | 1004.0 |
| 20260505082539 | 22 | 172 | 20.9 | 35.4 | 0.00 | 0.00 | 0.00 | 84 | 1004.1 |
| 20260505082039 | 22 | 175 | 24.1 | 35.4 | 0.00 | 0.00 | 0.00 | 84 | 1004.3 |
| 20260505081552 | 22 | 150 | 20.9 | 33.8 | 0.00 | 0.00 | 0.00 | 83 | 1004.3 |
| 20260505081039 | 22 | 183 | 19.3 | 35.4 | 0.00 | 0.00 | 0.00 | 83 | 1004.3 |
| 20260505080539 | 22 | 178 | 16.1 | 35.4 | 0.00 | 0.00 | 0.00 | 83 | 1004.1 |
| 20260505080044 | 22 | 189 | 22.5 | 33.8 | 0.00 | 0.00 | 0.00 | 83 | 1004.3 |
| 20260505075538 | 22 | 201 | 22.5 | 38.6 | 0.00 | 0.00 | 0.00 | 82 | 1004.3 |
| 20260505075038 | 22 | 196 | 22.5 | 40.2 | 0.00 | 0.00 | 0.00 | 83 | 1004.4 |
| 20260505074548 | 22 | 167 | 22.5 | 40.2 | 0.00 | 0.00 | 0.00 | 82 | 1004.3 |
| 20260505074038 | 22 | 193 | 24.1 | 37.0 | 0.00 | 0.00 | 0.00 | 82 | 1004.5 |
| 20260505073538 | 22 | 174 | 24.1 | 38.6 | 0.00 | 0.00 | 0.00 | 82 | 1004.6 |
| 20260505073050 | 22 | 177 | 25.7 | 40.2 | 0.00 | 0.00 | 0.00 | 81 | 1004.6 |
| 20260505072538 | 22 | 186 | 25.7 | 43.5 | 0.00 | 0.00 | 0.00 | 81 | 1004.7 |
| 20260505072038 | 22 | 173 | 29.0 | 43.5 | 0.00 | 0.00 | 0.00 | 80 | 1004.7 |
| 20260505071544 | 22 | 191 | 29.0 | 43.5 | 0.00 | 0.00 | 0.00 | 80 | 1004.8 |
| 20260505071038 | 22 | 178 | 27.4 | 40.2 | 0.00 | 0.00 | 0.00 | 80 | 1005.0 |
| 20260505070539 | 22 | 192 | 25.7 | 38.6 | 0.00 | 0.00 | 0.00 | 80 | 1005.0 |
| 20260505070050 | 22 | 188 | 25.7 | 45.1 | 0.00 | 0.00 | 0.00 | 79 | 1005.2 |
| 20260505065538 | 22 | 157 | 25.7 | 45.1 | 0.00 | 0.00 | 0.00 | 79 | 1005.4 |
| 20260505065038 | 23 | 176 | 25.7 | 37.0 | 0.00 | 0.00 | 0.00 | 78 | 1005.3 |
| 20260505064557 | 23 | 190 | 22.5 | 35.4 | 0.00 | 0.00 | 0.00 | 79 | 1005.5 |
| 20260505064037 | 23 | 190 | 22.5 | 35.4 | 0.00 | 0.00 | 0.00 | 78 | 1005.7 |
| 20260505063541 | 23 | 179 | 19.3 | 33.8 | 0.00 | 0.00 | 0.00 | 78 | 1005.7 |
| 20260505063049 | 23 | 173 | 20.9 | 35.4 | 0.00 | 0.00 | 0.00 | 78 | 1005.7 |
| 20260505062539 | 23 | 175 | 24.1 | 35.4 | 0.00 | 0.00 | 0.00 | 77 | 1005.7 |
| 20260505062039 | 23 | 182 | 20.9 | 37.0 | 0.00 | 0.00 | 0.00 | 77 | 1005.7 |
| 20260505061545 | 23 | 165 | 24.1 | 37.0 | 0.00 | 0.00 | 0.00 | 77 | 1005.6 |
| 20260505061039 | 23 | 177 | 24.1 | 40.2 | 0.00 | 0.00 | 0.00 | 77 | 1005.7 |
| 20260505060539 | 23 | 184 | 25.7 | 40.2 | 0.00 | 0.00 | 0.00 | 77 | 1005.6 |
| 20260505060057 | 23 | 186 | 20.9 | 33.8 | 0.00 | 0.00 | 0.00 | 77 | 1005.6 |
| 20260505055539 | 23 | 177 | 20.9 | 33.8 | 0.00 | 0.00 | 0.00 | 77 | 1005.6 |
| 20260505055039 | 23 | 184 | 24.1 | 45.1 | 0.00 | 0.00 | 0.00 | 77 | 1005.4 |
| 20260505054550 | 23 | 180 | 19.3 | 45.1 | 0.00 | 0.00 | 0.00 | 77 | 1005.5 |
| 20260505054040 | 23 | 189 | 22.5 | 38.6 | 0.00 | 0.00 | 0.00 | 76 | 1005.5 |
| 20260505053538 | 23 | 190 | 22.5 | 37.0 | 0.00 | 0.00 | 0.00 | 76 | 1005.5 |
| 20260505053109 | 23 | 168 | 20.9 | 37.0 | 0.00 | 0.00 | 0.00 | 76 | 1005.5 |
| 20260505052538 | 23 | 183 | 24.1 | 37.0 | 0.00 | 0.00 | 0.00 | 76 | 1005.6 |
| 20260505052041 | 23 | 186 | 22.5 | 40.2 | 0.00 | 0.00 | 0.00 | 76 | 1005.7 |
| 20260505051545 | 23 | 155 | 25.7 | 40.2 | 0.00 | 0.00 | 0.00 | 76 | 1005.8 |
| 20260505051039 | 23 | 194 | 22.5 | 37.0 | 0.00 | 0.00 | 0.00 | 76 | 1005.8 |
| 20260505050538 | 23 | 182 | 24.1 | 37.0 | 0.00 | 0.00 | 0.00 | 76 | 1005.9 |
| 20260505050103 | 23 | 186 | 20.9 | 37.0 | 0.00 | 0.00 | 0.00 | 76 | 1005.9 |
| 20260505041545 | 23 | 185 | 22.5 | 35.4 | 0.00 | 0.00 | 0.00 | 74 | 1005.8 |
| 20260505041039 | 23 | 172 | 20.9 | 38.6 | 0.00 | 0.00 | 0.00 | 74 | 1005.9 |
| 20260505040538 | 23 | 161 | 20.9 | 38.6 | 0.00 | 0.00 | 0.00 | 74 | 1005.9 |
| 20260505040045 | 23 | 163 | 22.5 | 38.6 | 0.00 | 0.00 | 0.00 | 73 | 1005.9 |
| 20260505035540 | 23 | 135 | 25.7 | 38.6 | 0.00 | 0.00 | 0.00 | 73 | 1006.0 |
| 20260505035036 | 23 | 169 | 20.9 | 37.0 | 0.00 | 0.00 | 0.00 | 73 | 1006.0 |
| 20260505034610 | 23 | 165 | 20.9 | 40.2 | 0.00 | 0.00 | 0.00 | 72 | 1006.0 |
| 20260505034036 | 23 | 184 | 22.5 | 40.2 | 0.00 | 0.00 | 0.00 | 72 | 1006.0 |
| 20260505033536 | 23 | 182 | 17.7 | 37.0 | 0.00 | 0.00 | 0.00 | 73 | 1005.9 |
| 20260505033053 | 24 | 196 | 22.5 | 35.4 | 0.00 | 0.00 | 0.00 | 72 | 1005.9 |
| 20260505032537 | 23 | 169 | 17.7 | 35.4 | 0.00 | 0.00 | 0.00 | 72 | 1005.9 |
| 20260505032038 | 23 | 158 | 20.9 | 35.4 | 0.00 | 0.00 | 0.00 | 72 | 1006.1 |
| 20260505031546 | 24 | 186 | 20.9 | 35.4 | 0.00 | 0.00 | 0.00 | 72 | 1006.1 |
| 20260505031038 | 24 | 178 | 22.5 | 35.4 | 0.00 | 0.00 | 0.00 | 73 | 1006.0 |
| 20260505030540 | 24 | 162 | 19.3 | 35.4 | 0.00 | 0.00 | 0.00 | 72 | 1006.0 |
| 20260505030052 | 24 | 189 | 19.3 | 35.4 | 0.00 | 0.00 | 0.00 | 72 | 1006.0 |